linux/drivers/watchdog/
<<
>>
Prefs
Kconfig 59340 2018-10-13 07:18:59
Makefile 7697 2018-10-13 07:18:59
acquirewdt.c 8692 2018-10-13 07:18:59
advantechwdt.c 7983 2018-10-13 07:18:59
alim1535_wdt.c 10135 2018-10-13 07:18:59
alim7101_wdt.c 11167 2018-10-13 07:18:59
ar7_wdt.c 7879 2018-10-13 07:18:59
asm9260_wdt.c 9404 2018-10-13 07:18:59
aspeed_wdt.c 5157 2018-10-13 07:18:59
at32ap700x_wdt.c 9841 2018-10-13 07:18:59
at91rm9200_wdt.c 8064 2018-10-13 07:18:59
at91sam9_wdt.c 10960 2018-10-13 07:18:59
at91sam9_wdt.h 1530 2018-10-13 07:18:59
ath79_wdt.c 7593 2018-10-13 07:18:59
atlas7_wdt.c 5975 2018-10-13 07:18:59
bcm2835_wdt.c 6941 2018-10-13 07:18:59
bcm47xx_wdt.c 6150 2018-10-13 07:18:59
bcm63xx_wdt.c 7136 2018-10-13 07:18:59
bcm7038_wdt.c 5824 2018-10-13 07:18:59
bcm_kona_wdt.c 9616 2018-10-13 07:18:59
bfin_wdt.c 10356 2018-10-13 07:18:59
booke_wdt.c 5971 2018-10-13 07:18:59
cadence_wdt.c 13212 2018-10-13 07:18:59
coh901327_wdt.c 13086 2018-10-13 07:18:59
cpu5wdt.c 6791 2018-10-13 07:18:59
cpwd.c 16264 2018-10-13 07:18:59
da9052_wdt.c 5337 2018-10-13 07:18:59
da9055_wdt.c 4605 2018-10-13 07:18:59
da9062_wdt.c 6458 2018-10-13 07:18:59
da9063_wdt.c 5534 2018-10-13 07:18:59
davinci_wdt.c 6497 2018-10-13 07:18:59
diag288_wdt.c 7647 2018-10-13 07:18:59
digicolor_wdt.c 4645 2018-10-13 07:18:59
dw_wdt.c 8259 2018-10-13 07:18:59
ebc-c384_wdt.c 4305 2018-10-13 07:18:59
ep93xx_wdt.c 4452 2018-10-13 07:18:59
eurotechwdt.c 10928 2018-10-13 07:18:59
f71808e_wdt.c 22352 2018-10-13 07:18:59
gef_wdt.c 7672 2018-10-13 07:18:59
geodewdt.c 6603 2018-10-13 07:18:59
gpio_wdt.c 6045 2018-10-13 07:18:59
hpwdt.c 10119 2018-10-13 07:18:59
i6300esb.c 12672 2018-10-13 07:18:59
iTCO_vendor.h 680 2018-10-13 07:18:59
iTCO_vendor_support.c 11089 2018-10-13 07:18:59
iTCO_wdt.c 19352 2018-10-13 07:18:59
ib700wdt.c 8519 2018-10-13 07:18:59
ibmasr.c 9628 2018-10-13 07:18:59
ie6xx_wdt.c 8769 2018-10-13 07:18:59
imgpdc_wdt.c 9602 2018-10-13 07:18:59
imx2_wdt.c 12441 2018-10-13 07:18:59
indydog.c 4703 2018-10-13 07:18:59
intel-mid_wdt.c 4347 2018-10-13 07:18:59
intel_scu_watchdog.c 15396 2018-10-13 07:18:59
intel_scu_watchdog.h 2053 2018-10-13 07:18:59
iop_wdt.c 6030 2018-10-13 07:18:59
it8712f_wdt.c 10199 2018-10-13 07:18:59
it87_wdt.c 18703 2018-10-13 07:18:59
ixp4xx_wdt.c 4680 2018-10-13 07:18:59
jz4740_wdt.c 6364 2018-10-13 07:18:59
kempld_wdt.c 14963 2018-10-13 07:18:59
ks8695_wdt.c 7838 2018-10-13 07:18:59
lantiq_wdt.c 5878 2018-10-13 07:18:59
lpc18xx_wdt.c 9307 2018-10-13 07:18:59
m54xx_wdt.c 5130 2018-10-13 07:18:59
machzwd.c 10054 2018-10-13 07:18:59
max63xx_wdt.c 7154 2018-10-13 07:18:59
max77620_wdt.c 5472 2018-10-13 07:18:59
mei_wdt.c 16305 2018-10-13 07:18:59
mena21_wdt.c 6031 2018-10-13 07:18:59
menf21bmc_wdt.c 5492 2018-10-13 07:18:59
meson_gxbb_wdt.c 8143 2018-10-13 07:18:59
meson_wdt.c 6585 2018-10-13 07:18:59
mixcomwd.c 7428 2018-10-13 07:18:59
moxart_wdt.c 4566 2018-10-13 07:18:59
mpc8xxx_wdt.c 7024 2018-10-13 07:18:59
mt7621_wdt.c 4294 2018-10-13 07:18:59
mtk_wdt.c 6862 2018-10-13 07:18:59
mtx-1_wdt.c 6368 2018-10-13 07:18:59
mv64x60_wdt.c 7825 2018-10-13 07:18:59
ni903x_wdt.c 6899 2018-10-13 07:18:59
nuc900_wdt.c 7310 2018-10-13 07:18:59
nv_tco.c 12493 2018-10-13 07:18:59
nv_tco.h 2062 2018-10-13 07:18:59
octeon-wdt-main.c 17230 2018-10-13 07:18:59
octeon-wdt-nmi.S 1370 2018-10-13 07:18:59
of_xilinx_wdt.c 6996 2018-10-13 07:18:59
omap_wdt.c 9788 2018-10-13 07:18:59
omap_wdt.h 2300 2018-10-13 07:18:59
orion_wdt.c 16996 2018-10-13 07:18:59
pc87413_wdt.c 14364 2018-10-13 07:18:59
pcwd.c 26527 2018-10-13 07:18:59
pcwd_pci.c 20378 2018-10-13 07:18:59
pcwd_usb.c 21650 2018-10-13 07:18:59
pic32-dmt.c 5743 2018-10-13 07:18:59
pic32-wdt.c 6240 2018-10-13 07:18:59
pika_wdt.c 6878 2018-10-13 07:18:59
pnx4008_wdt.c 7267 2018-10-13 07:18:59
pnx833x_wdt.c 7250 2018-10-13 07:18:59
pretimeout_noop.c 1270 2018-10-13 07:18:59
pretimeout_panic.c 1252 2018-10-13 07:18:59
qcom-wdt.c 6521 2018-10-13 07:18:59
rc32434_wdt.c 8324 2018-10-13 07:18:59
rdc321x_wdt.c 7328 2018-10-13 07:18:59
renesas_wdt.c 5365 2018-10-13 07:18:59
retu_wdt.c 4630 2018-10-13 07:18:59
riowd.c 5716 2018-10-13 07:18:59
rn5t618_wdt.c 5293 2018-10-13 07:18:59
rt2880_wdt.c 5041 2018-10-13 07:18:59
s3c2410_wdt.c 20370 2018-10-13 07:18:59
sa1100_wdt.c 4751 2018-10-13 07:18:59
sama5d4_wdt.c 6468 2018-10-13 07:18:59
sb_wdog.c 8737 2018-10-13 07:18:59
sbc60xxwdt.c 10352 2018-10-13 07:18:59
sbc7240_wdt.c 7049 2018-10-13 07:18:59
sbc8360.c 10039 2018-10-13 07:18:59
sbc_epx_c3.c 5119 2018-10-13 07:18:59
sbc_fitpc2_wdt.c 5377 2018-10-13 07:18:59
sbsa_gwdt.c 11293 2018-10-13 07:18:59
sc1200wdt.c 11388 2018-10-13 07:18:59
sc520_wdt.c 11080 2018-10-13 07:18:59
sch311x_wdt.c 13801 2018-10-13 07:18:59
scx200_wdt.c 6599 2018-10-13 07:18:59
shwdt.c 9322 2018-10-13 07:18:59
sirfsoc_wdt.c 5819 2018-10-13 07:18:59
smsc37b787_wdt.c 15474 2018-10-13 07:18:59
softdog.c 4137 2018-10-13 07:18:59
sp5100_tco.c 15328 2018-10-13 07:18:59
sp5100_tco.h 1732 2018-10-13 07:18:59
sp805_wdt.c 7312 2018-10-13 07:18:59
st_lpc_wdt.c 7474 2018-10-13 07:18:59
stmp3xxx_rtc_wdt.c 4121 2018-10-13 07:18:59
sun4v_wdt.c 4594 2018-10-13 07:18:59
sunxi_wdt.c 8447 2018-10-13 07:18:59
tangox_wdt.c 5514 2018-10-13 07:18:59
tegra_wdt.c 7896 2018-10-13 07:18:59
ts4800_wdt.c 5352 2018-10-13 07:18:59
ts72xx_wdt.c 10015 2018-10-13 07:18:59
twl4030_wdt.c 3873 2018-10-13 07:18:59
txx9wdt.c 4683 2018-10-13 07:18:59
ux500_wdt.c 4104 2018-10-13 07:18:59
via_wdt.c 7638 2018-10-13 07:18:59
w83627hf_wdt.c 10637 2018-10-13 07:18:59
w83877f_wdt.c 10171 2018-10-13 07:18:59
w83977f_wdt.c 12093 2018-10-13 07:18:59
wafer5823wdt.c 7256 2018-10-13 07:18:59
watchdog_core.c 11342 2018-10-13 07:18:59
watchdog_core.h 1330 2018-10-13 07:18:59
watchdog_dev.c 27823 2018-10-13 07:18:59
watchdog_pretimeout.c 4804 2018-10-13 07:18:59
watchdog_pretimeout.h 1645 2018-10-13 07:18:59
wd501p.h 1598 2018-10-13 07:18:59
wdat_wdt.c 13011 2018-10-13 07:18:59
wdrtas.c 15626 2018-10-13 07:18:59
wdt.c 15830 2018-10-13 07:18:59
wdt285.c 4856 2018-10-13 07:18:59
wdt977.c 12079 2018-10-13 07:18:59
wdt_pci.c 17672 2018-10-13 07:18:59
wm831x_wdt.c 7533 2018-10-13 07:18:59
wm8350_wdt.c 4240 2018-10-13 07:18:59
xen_wdt.c 7630 2018-10-13 07:18:59
ziirave_wdt.c 19774 2018-10-13 07:18:59